| time (UTC) | temp F | wind direction | speed MPH | gust MPH | rain 1hr in | rain 24hr in | rain mn in | humidity % | barometer mb |
| 20260510001513 | 52 | 224 | 0.0 | 5.0 | 0.00 | 0.00 | 0.00 | 85 | 1031.1 |
| 20260510000004 | 51 | 207 | 0.0 | 4.0 | 0.00 | 0.00 | 0.00 | 88 | 1031.1 |
| 20260509234608 | 50 | 274 | 0.0 | 4.0 | 0.00 | 0.00 | 0.00 | 90 | 1031.1 |
| 20260509233011 | 50 | 269 | 1.0 | 3.0 | 0.00 | 0.00 | 0.00 | 92 | 1031.2 |
| 20260509231506 | 50 | 269 | 1.0 | 3.0 | 0.00 | 0.00 | 0.00 | 92 | 1031.1 |
| 20260509230012 | 50 | 269 | 0.0 | 3.0 | 0.00 | 0.00 | 0.00 | 92 | 1031.1 |
| 20260509224605 | 50 | 269 | 0.0 | 3.0 | 0.00 | 0.01 | 0.00 | 91 | 1031.1 |
| 20260509223006 | 50 | 269 | 0.0 | 3.0 | 0.00 | 0.01 | 0.00 | 92 | 1031.0 |
| 20260509221605 | 49 | 269 | 1.0 | 3.0 | 0.00 | 0.01 | 0.00 | 91 | 1030.8 |
| 20260509220006 | 49 | 269 | 0.0 | 4.0 | 0.00 | 0.01 | 0.00 | 91 | 1030.6 |
| 20260509213011 | 49 | 269 | 2.0 | 3.0 | 0.00 | 0.01 | 0.00 | 91 | 1030.0 |
| 20260509211504 | 49 | 269 | 1.0 | 4.0 | 0.00 | 0.01 | 0.00 | 91 | 1029.8 |
| 20260509210012 | 49 | 269 | 2.0 | 4.0 | 0.00 | 0.01 | 0.00 | 91 | 1029.7 |
| 20260509204508 | 49 | 269 | 1.0 | 3.0 | 0.00 | 0.02 | 0.00 | 91 | 1029.6 |
| 20260509203007 | 49 | 269 | 1.0 | 3.0 | 0.00 | 0.02 | 0.00 | 91 | 1029.5 |
| 20260509201605 | 50 | 286 | 1.0 | 5.0 | 0.00 | 0.02 | 0.00 | 91 | 1029.4 |
| 20260509200012 | 50 | 226 | 3.0 | 7.0 | 0.00 | 0.02 | 0.00 | 91 | 1029.3 |
| 20260509194604 | 50 | 240 | 2.0 | 7.0 | 0.00 | 0.02 | 0.00 | 90 | 1029.2 |
| 20260509193011 | 50 | 218 | 3.0 | 5.0 | 0.00 | 0.02 | 0.00 | 90 | 1029.1 |
| 20260509191504 | 50 | 23 | 2.0 | 7.0 | 0.00 | 0.02 | 0.00 | 89 | 1028.9 |
| 20260509190005 | 50 | 292 | 0.0 | 2.0 | 0.00 | 0.02 | 0.00 | 89 | 1028.7 |
| 20260509184504 | 50 | 292 | 0.0 | 3.0 | 0.00 | 0.02 | 0.00 | 88 | 1028.4 |
| 20260509183004 | 50 | 292 | 1.0 | 2.0 | 0.00 | 0.02 | 0.00 | 89 | 1028.3 |
| 20260509181606 | 51 | 292 | 1.0 | 3.0 | 0.00 | 0.02 | 0.00 | 89 | 1028.1 |
| 20260509180012 | 51 | 292 | 1.0 | 4.0 | 0.00 | 0.02 | 0.00 | 89 | 1028.1 |
| 20260509174506 | 50 | 277 | 2.0 | 7.0 | 0.00 | 0.02 | 0.00 | 89 | 1028.1 |
| 20260509173121 | 51 | 315 | 2.0 | 5.0 | 0.00 | 0.02 | 0.00 | 89 | 1028.0 |
| 20260509171509 | 51 | 334 | 3.0 | 6.0 | 0.00 | 0.02 | 0.00 | 89 | 1028.1 |
| 20260509170011 | 51 | 323 | 2.0 | 5.0 | 0.00 | 0.02 | 0.00 | 89 | 1028.1 |
| 20260509164504 | 51 | 291 | 2.0 | 5.0 | 0.00 | 0.02 | 0.00 | 89 | 1028.2 |
| 20260509163013 | 51 | 323 | 3.0 | 5.0 | 0.00 | 0.02 | 0.00 | 89 | 1028.2 |
| 20260509161606 | 51 | 291 | 1.0 | 4.0 | 0.00 | 0.02 | 0.00 | 89 | 1028.2 |
| 20260509160005 | 51 | 300 | 3.0 | 8.0 | 0.00 | 0.02 | 0.00 | 89 | 1028.2 |
| 20260509154620 | 51 | 333 | 3.0 | 5.0 | 0.00 | 0.02 | 0.00 | 89 | 1028.2 |
| 20260509153009 | 51 | 282 | 3.0 | 6.0 | 0.00 | 0.02 | 0.00 | 90 | 1028.3 |
| 20260509151546 | 51 | 307 | 2.0 | 5.0 | 0.00 | 0.02 | 0.00 | 90 | 1028.3 |
| 20260509150017 | 51 | 293 | 2.0 | 5.0 | 0.00 | 0.02 | 0.00 | 90 | 1028.4 |
| 20260509144613 | 51 | 286 | 2.0 | 5.0 | 0.00 | 0.02 | 0.00 | 90 | 1028.3 |
| 20260509143010 | 51 | 314 | 2.0 | 7.0 | 0.00 | 0.02 | 0.00 | 90 | 1028.3 |
| 20260509141603 | 51 | 339 | 3.0 | 5.0 | 0.00 | 0.02 | 0.00 | 91 | 1028.2 |
| 20260509140005 | 51 | 339 | 1.0 | 2.0 | 0.00 | 0.02 | 0.00 | 91 | 1028.3 |
| 20260509134603 | 52 | 339 | 1.0 | 4.0 | 0.00 | 0.02 | 0.00 | 90 | 1028.3 |
| 20260509133004 | 51 | 339 | 1.0 | 5.0 | 0.00 | 0.02 | 0.00 | 90 | 1028.4 |
| 20260509131603 | 52 | 317 | 1.0 | 4.0 | 0.00 | 0.02 | 0.00 | 90 | 1028.4 |
| 20260509130021 | 52 | 317 | 1.0 | 2.0 | 0.00 | 0.02 | 0.00 | 90 | 1028.5 |
| 20260509124504 | 52 | 317 | 1.0 | 2.0 | 0.00 | 0.02 | 0.02 | 91 | 1028.4 |
| 20260509123004 | 52 | 317 | 1.0 | 2.0 | 0.00 | 0.02 | 0.02 | 91 | 1028.4 |
| 20260509121617 | 52 | 317 | 0.0 | 2.0 | 0.00 | 0.02 | 0.02 | 90 | 1028.5 |
| 20260509120012 | 52 | 317 | 1.0 | 3.0 | 0.00 | 0.02 | 0.02 | 90 | 1028.5 |
| 20260509114604 | 52 | 240 | 1.0 | 3.0 | 0.00 | 0.02 | 0.02 | 90 | 1028.4 |
| 20260509113003 | 52 | 340 | 1.0 | 4.0 | 0.00 | 0.02 | 0.02 | 90 | 1028.2 |
| 20260509111608 | 52 | 262 | 1.0 | 4.0 | 0.00 | 0.02 | 0.02 | 90 | 1028.2 |
| 20260509110004 | 52 | 301 | 1.0 | 4.0 | 0.00 | 0.03 | 0.02 | 90 | 1028.1 |
| 20260509104607 | 53 | 286 | 0.0 | 3.0 | 0.00 | 0.03 | 0.02 | 90 | 1028.1 |
| 20260509103010 | 53 | 265 | 1.0 | 3.0 | 0.00 | 0.03 | 0.02 | 90 | 1028.1 |
| 20260509101502 | 53 | 288 | 1.0 | 3.0 | 0.00 | 0.03 | 0.02 | 89 | 1028.1 |
| 20260509100007 | 53 | 235 | 1.0 | 5.0 | 0.00 | 0.03 | 0.02 | 88 | 1027.9 |
| 20260509094603 | 53 | 294 | 1.0 | 4.0 | 0.00 | 0.03 | 0.02 | 87 | 1027.9 |
| 20260509093009 | 53 | 240 | 2.0 | 7.0 | 0.00 | 0.03 | 0.02 | 87 | 1027.9 |
| 20260509091503 | 52 | 290 | 1.0 | 7.0 | 0.00 | 0.03 | 0.02 | 87 | 1027.8 |
| 20260509090012 | 52 | 298 | 1.0 | 4.0 | 0.00 | 0.03 | 0.02 | 86 | 1027.5 |
| 20260509084503 | 53 | 271 | 2.0 | 6.0 | 0.00 | 0.03 | 0.02 | 87 | 1027.6 |
| 20260509083004 | 53 | 197 | 2.0 | 6.0 | 0.00 | 0.03 | 0.02 | 87 | 1027.4 |
| 20260509081607 | 53 | 308 | 2.0 | 3.0 | 0.00 | 0.03 | 0.02 | 87 | 1027.4 |
| 20260509080010 | 53 | 308 | 1.0 | 3.0 | 0.00 | 0.03 | 0.02 | 87 | 1027.3 |
| 20260509074603 | 53 | 308 | 1.0 | 3.0 | 0.00 | 0.03 | 0.02 | 86 | 1027.1 |
| 20260509073010 | 54 | 298 | 1.0 | 3.0 | 0.00 | 0.03 | 0.02 | 86 | 1027.0 |
| 20260509071604 | 54 | 250 | 1.0 | 3.0 | 0.00 | 0.03 | 0.02 | 85 | 1027.0 |
| 20260509070004 | 55 | 236 | 1.0 | 3.0 | 0.00 | 0.03 | 0.02 | 85 | 1026.9 |
| 20260509064607 | 55 | 269 | 0.0 | 3.0 | 0.00 | 0.03 | 0.02 | 85 | 1026.8 |
| 20260509063012 | 55 | 265 | 2.0 | 7.0 | 0.00 | 0.03 | 0.02 | 85 | 1026.7 |
| 20260509061515 | 55 | 292 | 1.0 | 5.0 | 0.00 | 0.03 | 0.02 | 84 | 1026.7 |
| 20260509060006 | 55 | 286 | 1.0 | 4.0 | 0.00 | 0.04 | 0.02 | 85 | 1026.6 |
| 20260509054614 | 55 | 245 | 3.0 | 5.0 | 0.00 | 0.04 | 0.02 | 84 | 1026.6 |
| 20260509053003 | 55 | 331 | 0.0 | 3.0 | 0.00 | 0.04 | 0.02 | 85 | 1026.5 |
| 20260509051605 | 55 | 331 | 1.0 | 4.0 | 0.00 | 0.04 | 0.02 | 85 | 1026.6 |
| 20260509050003 | 56 | 313 | 3.0 | 6.0 | 0.00 | 0.05 | 0.02 | 85 | 1026.6 |
| 20260509044602 | 55 | 194 | 3.0 | 8.0 | 0.00 | 0.05 | 0.02 | 85 | 1026.6 |
| 20260509043003 | 55 | 196 | 4.0 | 8.0 | 0.00 | 0.05 | 0.02 | 85 | 1026.5 |
| 20260509041606 | 55 | 194 | 4.0 | 9.0 | 0.00 | 0.05 | 0.02 | 84 | 1026.5 |
| 20260509040002 | 55 | 214 | 2.0 | 5.0 | 0.00 | 0.05 | 0.02 | 84 | 1026.6 |
| 20260509034607 | 55 | 345 | 2.0 | 5.0 | 0.00 | 0.05 | 0.02 | 85 | 1026.5 |
| 20260509033003 | 55 | 288 | 1.0 | 7.0 | 0.00 | 0.05 | 0.02 | 87 | 1026.6 |
| 20260509031607 | 55 | 225 | 2.0 | 5.0 | 0.00 | 0.05 | 0.02 | 86 | 1026.8 |
| 20260509030011 | 55 | 279 | 3.0 | 7.0 | 0.00 | 0.05 | 0.02 | 86 | 1027.1 |
| 20260509024603 | 55 | 278 | 5.0 | 11.0 | 0.00 | 0.06 | 0.02 | 86 | 1027.2 |
| 20260509023002 | 54 | 201 | 3.0 | 8.0 | 0.00 | 0.06 | 0.02 | 88 | 1027.2 |
| 20260509021603 | 54 | 295 | 1.0 | 7.0 | 0.00 | 0.06 | 0.02 | 89 | 1027.5 |
| 20260509020002 | 53 | 209 | 1.0 | 10.0 | 0.00 | 0.06 | 0.02 | 89 | 1027.7 |
| 20260509014603 | 54 | 277 | 2.0 | 8.0 | 0.00 | 0.06 | 0.02 | 90 | 1027.7 |
| 20260509013003 | 53 | 252 | 2.0 | 6.0 | 0.00 | 0.06 | 0.02 | 91 | 1027.9 |
| 20260509011604 | 53 | 284 | 2.0 | 5.0 | 0.00 | 0.06 | 0.02 | 91 | 1027.9 |